Year,Month,Day,Hour,Minute,Value (Times are PST for temperature in C)
2012,06,22,00,00,16.30
2012,06,22,00,01,16.30
2012,06,22,00,02,16.30
2012,06,22,00,03,16.30
2012,06,22,00,04,16.30
2012,06,22,00,05,16.20
2012,06,22,00,06,16.20
2012,06,22,00,07,16.20
2012,06,22,00,08,16.20
2012,06,22,00,09,16.20
2012,06,22,00,10,16.10
2012,06,22,00,11,16.10
2012,06,22,00,12,16.10
2012,06,22,00,13,16.10
2012,06,22,00,14,16.10
2012,06,22,00,15,16.10
2012,06,22,00,16,16.10
2012,06,22,00,17,16.10
2012,06,22,00,18,16.00
2012,06,22,00,19,15.90
2012,06,22,00,20,15.90
2012,06,22,00,21,15.90
2012,06,22,00,22,15.80
2012,06,22,00,23,15.80
2012,06,22,00,24,15.80
2012,06,22,00,25,15.80
2012,06,22,00,26,15.80
2012,06,22,00,27,15.80
2012,06,22,00,28,15.80
2012,06,22,00,29,15.80
2012,06,22,00,30,15.80
2012,06,22,00,31,15.80
2012,06,22,00,32,15.80
2012,06,22,00,33,15.80
2012,06,22,00,34,15.80
2012,06,22,00,35,15.80
2012,06,22,00,36,15.80
2012,06,22,00,37,15.80
2012,06,22,00,38,15.70
2012,06,22,00,39,15.70
2012,06,22,00,40,15.70
2012,06,22,00,41,15.70
2012,06,22,00,42,15.60
2012,06,22,00,43,15.60
2012,06,22,00,44,15.60
2012,06,22,00,45,15.50
2012,06,22,00,46,15.50
2012,06,22,00,47,15.50
2012,06,22,00,48,15.50
2012,06,22,00,49,15.40
2012,06,22,00,50,15.40
2012,06,22,00,51,15.40
2012,06,22,00,52,15.40
2012,06,22,00,53,15.30
2012,06,22,00,54,15.30
2012,06,22,00,55,15.30
2012,06,22,00,56,15.30
2012,06,22,00,57,15.30
2012,06,22,00,58,15.30
2012,06,22,00,59,15.30
2012,06,22,01,00,15.20
2012,06,22,01,01,15.20
2012,06,22,01,02,15.20
2012,06,22,01,03,15.20
2012,06,22,01,04,15.20
2012,06,22,01,05,15.20
2012,06,22,01,06,15.10
2012,06,22,01,07,15.10
2012,06,22,01,08,15.10
2012,06,22,01,09,15.00
2012,06,22,01,10,15.00
2012,06,22,01,11,14.90
2012,06,22,01,12,14.90
2012,06,22,01,13,14.90
2012,06,22,01,14,14.90
2012,06,22,01,15,14.90
2012,06,22,01,16,14.80
2012,06,22,01,17,14.80
2012,06,22,01,18,14.80
2012,06,22,01,19,14.80
2012,06,22,01,20,14.80
2012,06,22,01,21,14.80
2012,06,22,01,22,14.80
2012,06,22,01,23,14.80
2012,06,22,01,24,14.80
2012,06,22,01,25,14.70
2012,06,22,01,26,14.70
2012,06,22,01,27,14.70
2012,06,22,01,28,14.70
2012,06,22,01,29,14.70
2012,06,22,01,30,14.60
2012,06,22,01,31,14.60
2012,06,22,01,32,14.60
2012,06,22,01,33,14.50
2012,06,22,01,34,14.50
2012,06,22,01,35,14.40
2012,06,22,01,36,14.40
2012,06,22,01,37,14.30
2012,06,22,01,38,14.30
2012,06,22,01,39,14.20
2012,06,22,01,40,14.20
2012,06,22,01,41,14.20
2012,06,22,01,42,14.20
2012,06,22,01,43,14.20
2012,06,22,01,44,14.10
2012,06,22,01,45,14.10
2012,06,22,01,46,14.00
2012,06,22,01,47,14.00
2012,06,22,01,48,14.00
2012,06,22,01,49,14.00
2012,06,22,01,50,13.90
2012,06,22,01,51,13.90
2012,06,22,01,52,13.90
2012,06,22,01,53,13.90
2012,06,22,01,54,13.80
2012,06,22,01,55,13.80
2012,06,22,01,56,13.80
2012,06,22,01,57,13.80
2012,06,22,01,58,13.80
2012,06,22,01,59,13.80
2012,06,22,02,00,13.80
2012,06,22,02,01,13.80
2012,06,22,02,02,13.80
2012,06,22,02,03,13.80
2012,06,22,02,04,13.80
2012,06,22,02,05,13.80
2012,06,22,02,06,13.80
2012,06,22,02,07,13.80
2012,06,22,02,08,13.70
2012,06,22,02,09,13.70
2012,06,22,02,10,13.70
2012,06,22,02,11,13.70
2012,06,22,02,12,13.70
2012,06,22,02,13,13.70
2012,06,22,02,14,13.70
2012,06,22,02,15,13.70
2012,06,22,02,16,13.70
2012,06,22,02,17,13.70
2012,06,22,02,18,13.70
2012,06,22,02,19,13.70
2012,06,22,02,20,13.70
2012,06,22,02,21,13.70
2012,06,22,02,22,13.60
2012,06,22,02,23,13.60
2012,06,22,02,24,13.60
2012,06,22,02,25,13.60
2012,06,22,02,26,13.60
2012,06,22,02,27,13.50
2012,06,22,02,28,13.50
2012,06,22,02,29,13.50
2012,06,22,02,30,13.50
2012,06,22,02,31,13.50
2012,06,22,02,32,13.40
2012,06,22,02,33,13.40
2012,06,22,02,34,13.40
2012,06,22,02,35,13.30
2012,06,22,02,36,13.30
2012,06,22,02,37,13.30
2012,06,22,02,38,13.30
2012,06,22,02,39,13.30
2012,06,22,02,40,13.30
2012,06,22,02,41,13.30
2012,06,22,02,42,13.30
2012,06,22,02,43,13.20
2012,06,22,02,44,13.20
2012,06,22,02,45,13.20
2012,06,22,02,46,13.20
2012,06,22,02,47,13.20
2012,06,22,02,48,13.10
2012,06,22,02,49,13.10
2012,06,22,02,50,13.10
2012,06,22,02,51,13.10
2012,06,22,02,52,13.10
2012,06,22,02,53,13.10
2012,06,22,02,54,13.10
2012,06,22,02,55,13.00
2012,06,22,02,56,13.00
2012,06,22,02,57,13.00
2012,06,22,02,58,13.00
2012,06,22,02,59,12.90
2012,06,22,03,00,12.90
2012,06,22,03,01,12.90
2012,06,22,03,02,12.90
2012,06,22,03,03,12.90
2012,06,22,03,04,12.90
2012,06,22,03,05,13.00
2012,06,22,03,06,13.00
2012,06,22,03,07,13.10
2012,06,22,03,08,13.10
2012,06,22,03,09,13.20
2012,06,22,03,10,13.20
2012,06,22,03,11,13.20
2012,06,22,03,12,13.30
2012,06,22,03,13,13.30
2012,06,22,03,14,13.30
2012,06,22,03,15,13.30
2012,06,22,03,16,13.30
2012,06,22,03,17,13.30
2012,06,22,03,18,13.30
2012,06,22,03,19,13.30
2012,06,22,03,20,13.30
2012,06,22,03,21,13.30
2012,06,22,03,22,13.30
2012,06,22,03,23,13.30
2012,06,22,03,24,13.30
2012,06,22,03,25,13.30
2012,06,22,03,26,13.20
2012,06,22,03,27,13.20
2012,06,22,03,28,13.20
2012,06,22,03,29,13.10
2012,06,22,03,30,13.10
2012,06,22,03,31,13.00
2012,06,22,03,32,13.00
2012,06,22,03,33,12.90
2012,06,22,03,34,12.90
2012,06,22,03,35,12.90
2012,06,22,03,36,12.80
2012,06,22,03,37,12.80
2012,06,22,03,38,12.80
2012,06,22,03,39,12.80
2012,06,22,03,40,12.80
2012,06,22,03,41,12.80
2012,06,22,03,42,12.80
2012,06,22,03,43,12.70
2012,06,22,03,44,12.70
2012,06,22,03,45,12.70
2012,06,22,03,46,12.60
2012,06,22,03,47,12.60
2012,06,22,03,48,12.60
2012,06,22,03,49,12.60
2012,06,22,03,50,12.60
2012,06,22,03,51,12.60
2012,06,22,03,52,12.60
2012,06,22,03,53,12.60
2012,06,22,03,54,12.60
2012,06,22,03,55,12.70
2012,06,22,03,56,12.70
2012,06,22,03,57,12.70
2012,06,22,03,58,12.70
2012,06,22,03,59,12.60
2012,06,22,04,00,12.60
2012,06,22,04,01,12.60
2012,06,22,04,02,12.60
2012,06,22,04,03,12.60
2012,06,22,04,04,12.60
2012,06,22,04,05,12.60
2012,06,22,04,06,12.60
2012,06,22,04,07,12.70
2012,06,22,04,08,12.70
2012,06,22,04,09,12.70
2012,06,22,04,10,12.80
2012,06,22,04,11,12.80
2012,06,22,04,12,12.80
2012,06,22,04,13,12.80
2012,06,22,04,14,12.80
2012,06,22,04,15,12.80
2012,06,22,04,16,12.80
2012,06,22,04,17,12.80
2012,06,22,04,18,12.90
2012,06,22,04,19,12.90
2012,06,22,04,20,13.00
2012,06,22,04,21,13.00
2012,06,22,04,22,13.00
2012,06,22,04,23,13.10
2012,06,22,04,24,13.10
2012,06,22,04,25,13.20
2012,06,22,04,26,13.20
2012,06,22,04,27,13.30
2012,06,22,04,28,13.30
2012,06,22,04,29,13.20
2012,06,22,04,30,13.20
2012,06,22,04,31,13.20
2012,06,22,04,32,13.30
2012,06,22,04,33,13.30
2012,06,22,04,34,13.30
2012,06,22,04,35,13.30
2012,06,22,04,36,13.30
2012,06,22,04,37,13.30
2012,06,22,04,38,13.30
2012,06,22,04,39,13.30
2012,06,22,04,40,13.30
2012,06,22,04,41,13.30
2012,06,22,04,42,13.30
2012,06,22,04,43,13.20
2012,06,22,04,44,13.20
2012,06,22,04,45,13.20
2012,06,22,04,46,13.20
2012,06,22,04,47,13.20
2012,06,22,04,48,13.10
2012,06,22,04,49,13.20
2012,06,22,04,50,13.20
2012,06,22,04,51,13.20
2012,06,22,04,52,13.20
2012,06,22,04,53,13.20
2012,06,22,04,54,13.20
2012,06,22,04,55,13.20
2012,06,22,04,56,13.20
2012,06,22,04,57,13.20
2012,06,22,04,58,13.20
2012,06,22,04,59,13.20
2012,06,22,05,00,13.20
2012,06,22,05,01,13.20
2012,06,22,05,02,13.20
2012,06,22,05,03,13.20
2012,06,22,05,04,13.20
2012,06,22,05,05,13.10
2012,06,22,05,06,13.10
2012,06,22,05,07,13.10
2012,06,22,05,08,13.10
2012,06,22,05,09,13.10
2012,06,22,05,10,13.10
2012,06,22,05,11,13.10
2012,06,22,05,12,13.10
2012,06,22,05,13,13.10
2012,06,22,05,14,13.10
2012,06,22,05,15,13.10
2012,06,22,05,16,13.10
2012,06,22,05,17,13.10
2012,06,22,05,18,13.10
2012,06,22,05,19,13.00
2012,06,22,05,20,13.00
2012,06,22,05,21,13.00
2012,06,22,05,22,13.00
2012,06,22,05,23,13.00
2012,06,22,05,24,13.00
2012,06,22,05,25,13.00
2012,06,22,05,26,13.00
2012,06,22,05,27,12.90
2012,06,22,05,28,12.90
2012,06,22,05,29,13.00
2012,06,22,05,30,12.90
2012,06,22,05,31,12.90
2012,06,22,05,32,13.00
2012,06,22,05,33,13.00
2012,06,22,05,34,13.00
2012,06,22,05,35,13.10
2012,06,22,05,36,13.10
2012,06,22,05,37,13.20
2012,06,22,05,38,13.20
2012,06,22,05,39,13.20
2012,06,22,05,40,13.30
2012,06,22,05,41,13.30
2012,06,22,05,42,13.30
2012,06,22,05,43,13.30
2012,06,22,05,44,13.30
2012,06,22,05,45,13.30
2012,06,22,05,46,13.30
2012,06,22,05,47,13.30
2012,06,22,05,48,13.30
2012,06,22,05,49,13.30
2012,06,22,05,50,13.30
2012,06,22,05,51,13.30
2012,06,22,05,52,13.40
2012,06,22,05,53,13.40
2012,06,22,05,54,13.40
2012,06,22,05,55,13.40
2012,06,22,05,56,13.40
2012,06,22,05,57,13.40
2012,06,22,05,58,13.40
2012,06,22,05,59,13.40
2012,06,22,06,00,13.40
2012,06,22,06,01,13.40
2012,06,22,06,02,13.40
2012,06,22,06,03,13.40
2012,06,22,06,04,13.40
2012,06,22,06,05,13.40
2012,06,22,06,06,13.30
2012,06,22,06,07,13.30
2012,06,22,06,08,13.30
2012,06,22,06,09,13.30
2012,06,22,06,10,13.30
2012,06,22,06,11,13.30
2012,06,22,06,12,13.30
2012,06,22,06,13,13.30
2012,06,22,06,14,13.30
2012,06,22,06,15,13.40
2012,06,22,06,16,13.40
2012,06,22,06,17,13.50
2012,06,22,06,18,13.50
2012,06,22,06,19,13.50
2012,06,22,06,20,13.50
2012,06,22,06,21,13.50
2012,06,22,06,22,13.50
2012,06,22,06,23,13.50
2012,06,22,06,24,13.50
2012,06,22,06,25,13.50
2012,06,22,06,26,13.50
2012,06,22,06,27,13.50
2012,06,22,06,28,13.60
2012,06,22,06,29,13.60
2012,06,22,06,30,13.60
2012,06,22,06,31,13.60
2012,06,22,06,32,13.60
2012,06,22,06,33,13.60
2012,06,22,06,34,13.70
2012,06,22,06,35,13.70
2012,06,22,06,36,13.70
2012,06,22,06,37,13.80
2012,06,22,06,38,13.80
2012,06,22,06,39,13.80
2012,06,22,06,40,13.90
2012,06,22,06,41,13.90
2012,06,22,06,42,13.90
2012,06,22,06,43,13.90
2012,06,22,06,44,14.00
2012,06,22,06,45,14.00
2012,06,22,06,46,14.00
2012,06,22,06,47,14.10
2012,06,22,06,48,14.10
2012,06,22,06,49,14.10
2012,06,22,06,50,14.20
2012,06,22,06,51,14.20
2012,06,22,06,52,14.20
2012,06,22,06,53,14.20
2012,06,22,06,54,14.20
2012,06,22,06,55,14.20
2012,06,22,06,56,14.20
2012,06,22,06,57,14.20
2012,06,22,06,58,14.20
2012,06,22,06,59,14.10
2012,06,22,07,00,14.10
2012,06,22,07,01,14.10
2012,06,22,07,02,14.10
2012,06,22,07,03,14.10
2012,06,22,07,04,14.10
2012,06,22,07,05,14.10
2012,06,22,07,06,14.00
2012,06,22,07,07,14.00
2012,06,22,07,08,14.00
2012,06,22,07,09,14.00
2012,06,22,07,10,14.00
2012,06,22,07,11,14.00
2012,06,22,07,12,14.00
2012,06,22,07,13,14.10
2012,06,22,07,14,14.10
2012,06,22,07,15,14.10
2012,06,22,07,16,14.20
2012,06,22,07,17,14.10
2012,06,22,07,18,14.10
2012,06,22,07,19,14.10
2012,06,22,07,20,14.20
2012,06,22,07,21,14.20
2012,06,22,07,22,14.20
2012,06,22,07,23,14.20
2012,06,22,07,24,14.30
2012,06,22,07,25,14.30
2012,06,22,07,26,14.40
2012,06,22,07,27,14.50
2012,06,22,07,28,14.50
2012,06,22,07,29,14.60
2012,06,22,07,30,14.70
2012,06,22,07,31,14.80
2012,06,22,07,32,14.80
2012,06,22,07,33,14.80
2012,06,22,07,34,14.90
2012,06,22,07,35,15.00
2012,06,22,07,36,15.10
2012,06,22,07,37,15.20
2012,06,22,07,38,15.20
2012,06,22,07,39,15.30
2012,06,22,07,40,15.40
2012,06,22,07,41,15.50
2012,06,22,07,42,15.60
2012,06,22,07,43,15.60
2012,06,22,07,44,15.70
2012,06,22,07,45,15.80
2012,06,22,07,46,15.80
2012,06,22,07,47,15.90
2012,06,22,07,48,16.00
2012,06,22,07,49,16.10
2012,06,22,07,50,16.10
2012,06,22,07,51,16.10
2012,06,22,07,52,16.10
2012,06,22,07,53,16.10
2012,06,22,07,54,16.10
2012,06,22,07,55,16.10
2012,06,22,07,56,16.10
2012,06,22,07,57,16.10
2012,06,22,07,58,16.10
2012,06,22,07,59,16.10
2012,06,22,08,00,16.10
2012,06,22,08,01,16.10
2012,06,22,08,02,16.10
2012,06,22,08,03,16.10
2012,06,22,08,04,16.10
2012,06,22,08,05,16.10
2012,06,22,08,06,16.20
2012,06,22,08,07,16.30
2012,06,22,08,08,16.30
2012,06,22,08,09,16.40
2012,06,22,08,10,16.40
2012,06,22,08,11,16.50
2012,06,22,08,12,16.60
2012,06,22,08,13,16.60
2012,06,22,08,14,16.70
2012,06,22,08,15,16.70
2012,06,22,08,16,16.70
2012,06,22,08,17,16.70
2012,06,22,08,18,16.80
2012,06,22,08,19,16.90
2012,06,22,08,20,17.00
2012,06,22,08,21,17.10
2012,06,22,08,22,17.20
2012,06,22,08,23,17.30
2012,06,22,08,24,17.30
2012,06,22,08,25,17.30
2012,06,22,08,26,17.20
2012,06,22,08,27,17.10
2012,06,22,08,28,17.00
2012,06,22,08,29,16.90
2012,06,22,08,30,16.80
2012,06,22,08,31,16.50
2012,06,22,08,32,16.40
2012,06,22,08,33,16.20
2012,06,22,08,34,16.10
2012,06,22,08,35,16.00
2012,06,22,08,36,15.80
2012,06,22,08,37,15.80
2012,06,22,08,38,15.60
2012,06,22,08,39,15.50
2012,06,22,08,40,15.40
2012,06,22,08,41,15.30
2012,06,22,08,42,15.20
2012,06,22,08,43,15.10
2012,06,22,08,44,15.00
2012,06,22,08,45,14.90
2012,06,22,08,46,14.80
2012,06,22,08,47,14.80
2012,06,22,08,48,14.70
2012,06,22,08,49,14.60
2012,06,22,08,50,14.60
2012,06,22,08,51,14.50
2012,06,22,08,52,14.50
2012,06,22,08,53,14.50
2012,06,22,08,54,14.40
2012,06,22,08,55,14.30
2012,06,22,08,56,14.30
2012,06,22,08,57,14.20
2012,06,22,08,58,14.10
2012,06,22,08,59,13.80
2012,06,22,09,00,13.70
2012,06,22,09,01,13.50
2012,06,22,09,02,13.40
2012,06,22,09,03,13.30
2012,06,22,09,04,13.30
2012,06,22,09,05,13.30
2012,06,22,09,06,13.30
2012,06,22,09,07,13.30
2012,06,22,09,08,13.40
2012,06,22,09,09,13.50
2012,06,22,09,10,13.50
2012,06,22,09,11,13.50
2012,06,22,09,12,13.50
2012,06,22,09,13,13.50
2012,06,22,09,14,13.60
2012,06,22,09,15,13.60
2012,06,22,09,16,13.70
2012,06,22,09,17,13.70
2012,06,22,09,18,13.80
2012,06,22,09,19,13.80
2012,06,22,09,20,13.80
2012,06,22,09,21,13.80
2012,06,22,09,22,13.90
2012,06,22,09,23,13.90
2012,06,22,09,24,13.90
2012,06,22,09,25,14.00
2012,06,22,09,26,14.00
2012,06,22,09,27,14.00
2012,06,22,09,28,14.10
2012,06,22,09,29,14.20
2012,06,22,09,30,14.20
2012,06,22,09,31,14.20
2012,06,22,09,32,14.20
2012,06,22,09,33,14.20
2012,06,22,09,34,14.20
2012,06,22,09,35,14.20
2012,06,22,09,36,14.20
2012,06,22,09,37,14.20
2012,06,22,09,38,14.00
2012,06,22,09,39,14.00
2012,06,22,09,40,13.90
2012,06,22,09,41,13.90
2012,06,22,09,42,13.90
2012,06,22,09,43,13.90
2012,06,22,09,44,13.90
2012,06,22,09,45,13.90
2012,06,22,09,46,13.90
2012,06,22,09,47,13.90
2012,06,22,09,48,13.80
2012,06,22,09,49,13.90
2012,06,22,09,50,13.90
2012,06,22,09,51,13.90
2012,06,22,09,52,13.90
2012,06,22,09,53,13.80
2012,06,22,09,54,13.80
2012,06,22,09,55,13.80
2012,06,22,09,56,13.80
2012,06,22,09,57,13.80
2012,06,22,09,58,13.80
2012,06,22,09,59,13.70
2012,06,22,10,00,13.80
2012,06,22,10,01,13.70
2012,06,22,10,02,13.70
2012,06,22,10,03,13.70
2012,06,22,10,04,13.60
2012,06,22,10,05,13.60
2012,06,22,10,06,13.50
2012,06,22,10,07,13.40
2012,06,22,10,08,13.30
2012,06,22,10,09,13.30
2012,06,22,10,10,13.10
2012,06,22,10,11,13.00
2012,06,22,10,12,12.90
2012,06,22,10,13,12.90
2012,06,22,10,14,12.80
2012,06,22,10,15,12.70
2012,06,22,10,16,12.70
2012,06,22,10,17,12.60
2012,06,22,10,18,12.50
2012,06,22,10,19,12.40
2012,06,22,10,20,12.30
2012,06,22,10,21,12.20
2012,06,22,10,22,12.20
2012,06,22,10,23,12.20
2012,06,22,10,24,12.20
2012,06,22,10,25,12.30
2012,06,22,10,26,12.30
2012,06,22,10,27,12.30
2012,06,22,10,28,12.40
2012,06,22,10,29,12.40
2012,06,22,10,30,12.50
2012,06,22,10,31,12.50
2012,06,22,10,32,12.60
2012,06,22,10,33,12.60
2012,06,22,10,34,12.70
2012,06,22,10,35,12.70
2012,06,22,10,36,12.80
2012,06,22,10,37,12.80
2012,06,22,10,38,12.80
2012,06,22,10,39,12.80
2012,06,22,10,40,12.90
2012,06,22,10,41,12.90
2012,06,22,10,42,13.00
2012,06,22,10,43,13.00
2012,06,22,10,44,13.00
2012,06,22,10,45,13.10
2012,06,22,10,46,13.10
2012,06,22,10,47,13.20
2012,06,22,10,48,13.30
2012,06,22,10,49,13.40
2012,06,22,10,50,13.50
2012,06,22,10,51,13.60
2012,06,22,10,52,13.60
2012,06,22,10,53,13.70
2012,06,22,10,54,13.70
2012,06,22,10,55,13.80
2012,06,22,10,56,13.80
2012,06,22,10,57,13.80
2012,06,22,10,58,13.80
2012,06,22,10,59,13.80
2012,06,22,11,00,13.70
2012,06,22,11,01,13.70
2012,06,22,11,02,13.70
2012,06,22,11,03,13.60
2012,06,22,11,04,13.50
2012,06,22,11,05,13.40
2012,06,22,11,06,13.40
2012,06,22,11,07,13.30
2012,06,22,11,08,13.20
2012,06,22,11,09,13.10
2012,06,22,11,10,13.00
2012,06,22,11,11,12.90
2012,06,22,11,12,12.80
2012,06,22,11,13,12.80
2012,06,22,11,14,12.70
2012,06,22,11,15,12.70
2012,06,22,11,16,12.60
2012,06,22,11,17,12.60
2012,06,22,11,18,12.60
2012,06,22,11,19,12.60
2012,06,22,11,20,12.60
2012,06,22,11,21,12.60
2012,06,22,11,22,12.60
2012,06,22,11,23,12.60
2012,06,22,11,24,12.60
2012,06,22,11,25,12.70
2012,06,22,11,26,12.70
2012,06,22,11,27,12.70
2012,06,22,11,28,12.70
2012,06,22,11,29,12.70
2012,06,22,11,30,12.60
2012,06,22,11,31,12.60
2012,06,22,11,32,12.50
2012,06,22,11,33,12.50
2012,06,22,11,34,12.40
2012,06,22,11,35,12.40
2012,06,22,11,36,12.40
2012,06,22,11,37,12.40
2012,06,22,11,38,12.30
2012,06,22,11,39,12.40
2012,06,22,11,40,12.40
2012,06,22,11,41,12.40
2012,06,22,11,42,12.40
2012,06,22,11,43,12.40
2012,06,22,11,44,12.40
2012,06,22,11,45,12.50
2012,06,22,11,46,12.50
2012,06,22,11,47,12.50
2012,06,22,11,48,12.50
2012,06,22,11,49,12.50
2012,06,22,11,50,12.40
2012,06,22,11,51,12.40
2012,06,22,11,52,12.30
2012,06,22,11,53,12.30
2012,06,22,11,54,12.30
2012,06,22,11,55,12.30
2012,06,22,11,56,12.30
2012,06,22,11,57,12.30
2012,06,22,11,58,12.30
2012,06,22,11,59,12.30
2012,06,22,12,00,12.30
2012,06,22,12,01,12.30
2012,06,22,12,02,12.30
2012,06,22,12,03,12.30
2012,06,22,12,04,12.30
2012,06,22,12,05,12.30
2012,06,22,12,06,12.30
2012,06,22,12,07,12.30
2012,06,22,12,08,12.30
2012,06,22,12,09,12.40
2012,06,22,12,10,12.40
2012,06,22,12,11,12.40
2012,06,22,12,12,12.40
2012,06,22,12,13,12.40
2012,06,22,12,14,12.50
2012,06,22,12,15,12.50
2012,06,22,12,16,12.50
2012,06,22,12,17,12.50
2012,06,22,12,18,12.50
2012,06,22,12,19,12.50
2012,06,22,12,20,12.50
2012,06,22,12,21,12.50
2012,06,22,12,22,12.50
2012,06,22,12,23,12.50
2012,06,22,12,24,12.40
2012,06,22,12,25,12.50
2012,06,22,12,26,12.50
2012,06,22,12,27,12.50
2012,06,22,12,28,12.40
2012,06,22,12,29,12.40
2012,06,22,12,30,12.40
2012,06,22,12,31,12.30
2012,06,22,12,32,12.30
2012,06,22,12,33,12.20
2012,06,22,12,34,12.10
2012,06,22,12,35,12.00
2012,06,22,12,36,11.90
2012,06,22,12,37,11.80
2012,06,22,12,38,11.80
2012,06,22,12,39,11.70
2012,06,22,12,40,11.70
2012,06,22,12,41,11.60
2012,06,22,12,42,11.50
2012,06,22,12,43,11.40
2012,06,22,12,44,11.30
2012,06,22,12,45,11.20
2012,06,22,12,46,11.20
2012,06,22,12,47,11.20
2012,06,22,12,48,11.20
2012,06,22,12,49,11.20
2012,06,22,12,50,11.20
2012,06,22,12,51,11.20
2012,06,22,12,52,11.20
2012,06,22,12,53,11.20
2012,06,22,12,54,11.20
2012,06,22,12,55,11.10
2012,06,22,12,56,11.10
2012,06,22,12,57,11.10
2012,06,22,12,58,11.00
2012,06,22,12,59,10.90
2012,06,22,13,00,10.90
2012,06,22,13,01,10.90
2012,06,22,13,02,10.90
2012,06,22,13,03,10.90
2012,06,22,13,04,10.90
2012,06,22,13,05,10.90
2012,06,22,13,06,10.90
2012,06,22,13,07,10.90
2012,06,22,13,08,10.90
2012,06,22,13,09,10.90
2012,06,22,13,10,10.90
2012,06,22,13,11,10.90
2012,06,22,13,12,10.90
2012,06,22,13,13,10.90
2012,06,22,13,14,10.90
2012,06,22,13,15,10.90
2012,06,22,13,16,11.00
2012,06,22,13,17,11.10
2012,06,22,13,18,11.10
2012,06,22,13,19,11.10
2012,06,22,13,20,11.10
2012,06,22,13,21,11.10
2012,06,22,13,22,11.10
2012,06,22,13,23,11.10
2012,06,22,13,24,11.10
2012,06,22,13,25,11.10
2012,06,22,13,26,11.10
2012,06,22,13,27,11.10
2012,06,22,13,28,11.10
2012,06,22,13,29,11.10
2012,06,22,13,30,11.10
2012,06,22,13,31,11.10
2012,06,22,13,32,11.00
2012,06,22,13,33,10.90
2012,06,22,13,34,10.90
2012,06,22,13,35,11.00
2012,06,22,13,36,11.10
2012,06,22,13,37,11.10
2012,06,22,13,38,11.10
2012,06,22,13,39,11.10
2012,06,22,13,40,11.10
2012,06,22,13,41,11.10
2012,06,22,13,42,11.10
2012,06,22,13,43,11.10
2012,06,22,13,44,11.10
2012,06,22,13,45,11.10
2012,06,22,13,46,11.10
2012,06,22,13,47,11.10
2012,06,22,13,48,11.10
2012,06,22,13,49,11.10
2012,06,22,13,50,11.10
2012,06,22,13,51,11.10
2012,06,22,13,52,11.20
2012,06,22,13,53,11.20
2012,06,22,13,54,11.20
2012,06,22,13,55,11.30
2012,06,22,13,56,11.20
2012,06,22,13,57,11.20
2012,06,22,13,58,11.20
2012,06,22,13,59,11.20
2012,06,22,14,00,11.20
2012,06,22,14,01,11.20
2012,06,22,14,02,11.20
2012,06,22,14,03,11.20
2012,06,22,14,04,11.20
2012,06,22,14,05,11.20
2012,06,22,14,06,11.30
2012,06,22,14,07,11.30
2012,06,22,14,08,11.30
2012,06,22,14,09,11.30
2012,06,22,14,10,11.30
2012,06,22,14,11,11.30
2012,06,22,14,12,11.30
2012,06,22,14,13,11.30
2012,06,22,14,14,11.40
2012,06,22,14,15,11.30
2012,06,22,14,16,11.30
2012,06,22,14,17,11.30
2012,06,22,14,18,11.30
2012,06,22,14,19,11.30
2012,06,22,14,20,11.30
2012,06,22,14,21,11.40
2012,06,22,14,22,11.40
2012,06,22,14,23,11.40
2012,06,22,14,24,11.40
2012,06,22,14,25,11.40
2012,06,22,14,26,11.40
2012,06,22,14,27,11.40
2012,06,22,14,28,11.40
2012,06,22,14,29,11.40
2012,06,22,14,30,11.40
2012,06,22,14,31,11.40
2012,06,22,14,32,11.40
2012,06,22,14,33,11.40
2012,06,22,14,34,11.40
2012,06,22,14,35,11.40
2012,06,22,14,36,11.40
2012,06,22,14,37,11.40
2012,06,22,14,38,11.40
2012,06,22,14,39,11.40
2012,06,22,14,40,11.40
2012,06,22,14,41,11.40
2012,06,22,14,42,11.40
2012,06,22,14,43,11.40
2012,06,22,14,44,11.40
2012,06,22,14,45,11.50
2012,06,22,14,46,11.60
2012,06,22,14,47,11.60
2012,06,22,14,48,11.60
2012,06,22,14,49,11.60
2012,06,22,14,50,11.60
2012,06,22,14,51,11.60
2012,06,22,14,52,11.60
2012,06,22,14,53,11.60
2012,06,22,14,54,11.60
2012,06,22,14,55,11.60
2012,06,22,14,56,11.60
2012,06,22,14,57,11.60
2012,06,22,14,58,11.60
2012,06,22,14,59,11.70
2012,06,22,15,00,11.70
2012,06,22,15,01,11.60
2012,06,22,15,02,11.60
2012,06,22,15,03,11.60
2012,06,22,15,04,11.60
2012,06,22,15,05,11.60
2012,06,22,15,06,11.60
2012,06,22,15,07,11.60
2012,06,22,15,08,11.70
2012,06,22,15,09,11.70
2012,06,22,15,10,11.70
2012,06,22,15,11,11.70
2012,06,22,15,12,11.70
2012,06,22,15,13,11.70
2012,06,22,15,14,11.70
2012,06,22,15,15,11.70
2012,06,22,15,16,11.70
2012,06,22,15,17,11.60
2012,06,22,15,18,11.70
2012,06,22,15,19,11.60
2012,06,22,15,20,11.60
2012,06,22,15,21,11.60
2012,06,22,15,22,11.60
2012,06,22,15,23,11.60
2012,06,22,15,24,11.60
2012,06,22,15,25,11.60
2012,06,22,15,26,11.60
2012,06,22,15,27,11.60
2012,06,22,15,28,11.60
2012,06,22,15,29,11.70
2012,06,22,15,30,11.70
2012,06,22,15,31,11.70
2012,06,22,15,32,11.60
2012,06,22,15,33,11.60
2012,06,22,15,34,11.60
2012,06,22,15,35,11.70
2012,06,22,15,36,11.70
2012,06,22,15,37,11.70
2012,06,22,15,38,11.70
2012,06,22,15,39,11.70
2012,06,22,15,40,11.70
2012,06,22,15,41,11.60
2012,06,22,15,42,11.60
2012,06,22,15,43,11.60
2012,06,22,15,44,11.60
2012,06,22,15,45,11.60
2012,06,22,15,46,11.70
2012,06,22,15,47,11.70
2012,06,22,15,48,11.60
2012,06,22,15,49,11.60
2012,06,22,15,50,11.60
2012,06,22,15,51,11.70
2012,06,22,15,52,11.70
2012,06,22,15,53,11.70
2012,06,22,15,54,11.70
2012,06,22,15,55,11.60
2012,06,22,15,56,11.60
2012,06,22,15,57,11.60
2012,06,22,15,58,11.60
2012,06,22,15,59,11.60
2012,06,22,16,00,11.60
2012,06,22,16,01,11.70
2012,06,22,16,02,11.70
2012,06,22,16,03,11.70
2012,06,22,16,04,11.70
2012,06,22,16,05,11.70
2012,06,22,16,06,11.70
2012,06,22,16,07,11.60
2012,06,22,16,08,11.60
2012,06,22,16,09,11.60
2012,06,22,16,10,11.60
2012,06,22,16,11,11.60
2012,06,22,16,12,11.60
2012,06,22,16,13,11.60
2012,06,22,16,14,11.50
2012,06,22,16,15,11.40
2012,06,22,16,16,11.40
2012,06,22,16,17,11.40
2012,06,22,16,18,11.40
2012,06,22,16,19,11.40
2012,06,22,16,20,11.50
2012,06,22,16,21,11.60
2012,06,22,16,22,11.60
2012,06,22,16,23,11.60
2012,06,22,16,24,11.60
2012,06,22,16,25,11.60
2012,06,22,16,26,11.60
2012,06,22,16,27,11.60
2012,06,22,16,28,11.60
2012,06,22,16,29,11.50
2012,06,22,16,30,11.40
2012,06,22,16,31,11.40
2012,06,22,16,32,11.40
2012,06,22,16,33,11.40
2012,06,22,16,34,11.40
2012,06,22,16,35,11.40
2012,06,22,16,36,11.30
2012,06,22,16,37,11.30
2012,06,22,16,38,11.30
2012,06,22,16,39,11.30
2012,06,22,16,40,11.30
2012,06,22,16,41,11.20
2012,06,22,16,42,11.20
2012,06,22,16,43,11.20
2012,06,22,16,44,11.20
2012,06,22,16,45,11.20
2012,06,22,16,46,11.10
2012,06,22,16,47,11.10
2012,06,22,16,48,11.10
2012,06,22,16,49,11.10
2012,06,22,16,50,11.10
2012,06,22,16,51,11.10
2012,06,22,16,52,11.10
2012,06,22,16,53,11.10
2012,06,22,16,54,11.10
2012,06,22,16,55,11.10
2012,06,22,16,56,11.10
2012,06,22,16,57,11.00
2012,06,22,16,58,10.90
2012,06,22,16,59,10.90
2012,06,22,17,00,10.90
2012,06,22,17,01,11.00
2012,06,22,17,02,11.10
2012,06,22,17,03,11.10
2012,06,22,17,04,11.10
2012,06,22,17,05,11.10
2012,06,22,17,06,11.10
2012,06,22,17,07,11.10
2012,06,22,17,08,11.10
2012,06,22,17,09,11.10
2012,06,22,17,10,11.10
2012,06,22,17,11,11.10
2012,06,22,17,12,11.10
2012,06,22,17,13,11.10
2012,06,22,17,14,11.10
2012,06,22,17,15,11.10
2012,06,22,17,16,11.10
2012,06,22,17,17,11.10
2012,06,22,17,18,11.10
2012,06,22,17,19,11.10